sat.trackr.live / text

‹ back to catalog

LEMUR-2-SOPHILUNA-X1

NORAD 69930 · 2026-156BP

PAYLOAD ACTIVE UNKNOWN

§ Identity

Operator
Country
US
Launch date
2026-07-07
Launch site
AFWTR
Launch vehicle
Mass (kg)
RCS (m²)

External: N2YO · Heavens-Above · Gunter

§ Orbital elements

Epoch: 2026-09-19T23:02:29.205600Z

Period
96.47 min
Inclination
97.7478°
Eccentricity
0.0007291
Mean motion
14.92726181 rev/d
Perigee alt
584.4 km
Apogee alt
594.5 km
Semi-major
6,967.6 km
B*
2.0501e-4
RAAN
162.2753°
Arg perigee
280.0821°
Mean anomaly
79.9576°
Rev number
1,113

§ Raw data

LEMUR-2-SOPHILUNA-X11 69930U 26156BP  26262.96006025  .00002061  00000+0  20501-3 0  99922 69930  97.7478 162.2753 0007291 280.0821  79.9576 14.92726181 11137

JSON: /api/v1/satellites/69930 · /tle

For live sub-satellite position, see the globe view (requires WebGL).

§ Visibility from observer

Set your observer location to see the next 7 days of passes ≥ 10°. The values pass through the URL so the page stays shareable.

No JS? Fill the form by hand. The geolocation button needs JavaScript.